Simultaneous Nadir Overpasses (SNOs) Predictions

Prediction of SNOs between METOP-B and TERRA Satellite Orbit:

Table of predicted SNOs for the next 14.0 days since TLE Epoch: 8/18/2017
Index Date (METOP-B) Time (METOP-B) Lat,Lon (METOP-B) SZA (METOP-B ) Date (TERRA) Time (TERRA) Lat,Lon (TERRA) SZA (TERRA ) Distance(km) Time Diff (sec)
1 08/19/2017 03:47:26 -81.34, -9.05 108.58 08/19/2017 03:48:10 -81.34, -9.15 108.57 1.64 44
2 08/19/2017 04:38:06 81.34, 158.48 71.46 08/19/2017 04:37:36 81.35, 158.63 71.46 2.49 30
3 08/21/2017 23:21:46 -81.34, 57.40 107.63 08/21/2017 23:22:26 -81.34, 57.39 107.61 0.23 40
4 08/22/2017 00:12:25 81.35,-134.71 72.45 08/22/2017 00:11:52 81.35,-134.85 72.42 2.34 33
5 08/24/2017 18:56:06 -81.34, 123.84 106.66 08/24/2017 18:56:42 -81.35, 123.96 106.62 2.35 36
6 08/24/2017 19:46:45 81.35, -68.31 73.42 08/24/2017 19:46:08 81.36, -68.29 73.41 0.94 37
7 08/27/2017 14:30:25 -81.34,-169.74 105.66 08/27/2017 14:30:58 -81.34,-169.80 105.65 0.99 33
8 08/27/2017 15:21:04 81.35, -1.93 74.42 08/27/2017 15:20:24 81.35, -2.07 74.38 2.51 40
9 08/30/2017 10:04:45 -81.34,-103.33 104.64 08/30/2017 10:05:15 -81.33,-103.52 104.66 3.33 30




NCC Satellite Simultaneous Nadir Overpasses (SNOs) Prediction Service
